Caldwell, NJ

5:12 PM EST on November 13, 2019 (GMT -0500)
Essex County

Weather History for KCDW - September, 2019

Change the Weather History Date:

Thursday, September 5, 2019

  Actual Average Record
Temperature  
Mean Temperature 69 °F -  
Max Temperature 75 °F 78 °F 95 °F (1964)
Min Temperature 63 °F 56 °F 43 °F (1982)
Cooling Degree Days 4    
Growing Degree Days 19 (Base 50)    
Moisture  
Dew Point 56 °F    
Average Humidity 64    
Maximum Humidity 87    
Minimum Humidity 48    
Precipitation  
Precipitation 0.00 in - - ()
Sea Level Pressure  
Sea Level Pressure 30.09 in    
Wind  
Wind Speed 3 mph ()    
Max Wind Speed 9 mph    
Max Gust Speed -    
Visibility 10.0 miles    
Events      
Averages and records for this station are not official NWS values.
T = Trace of Precipitation, MM = Missing Value Source: Averaged Metar Reports

Daily Weather History Graph

Daily Weather History Graph

Search for Another Location

Airport or City:

Astronomy

Sep. 05, 2019 Rise Set
Actual Time 6:27 AM EDT 7:23 PM EDT
Civil Twilight 5:59 AM EDT 7:51 PM EDT
Nautical Twilight 5:26 AM EDT 8:24 PM EDT
Astronomical Twilight 4:51 AM EDT 8:58 PM EDT
Moon 1:34 PM EDT (9/5) 11:34 PM EDT (9/5)
Length of Visible Light 13h 51m
Length of Day
12h 55m
Waxing Crescent, 45% of the Moon is Illuminated
Sep 5
Waxing Crescent
Sep 5
First Quarter
Sep 14
Full
Sep 21
Last Quarter
Sep 28
New

Hourly Weather History & Observations

Time (EDT) Temp. Dew Point Humidity Pressure Visibility Wind Dir Wind Speed Gust Speed Precip Events Conditions
12:53 AM 72.0 °F 60.1 °F 66% 30.04 in 10.0 mi Variable 4.6 mph - N/A   Clear
1:53 AM 70.0 °F 57.9 °F 65% 30.05 in 10.0 mi NE 3.5 mph - N/A   Clear
2:53 AM 66.9 °F 57.0 °F 70% 30.05 in 10.0 mi NE 3.5 mph - N/A   Clear
3:53 AM 66.0 °F 57.9 °F 75% 30.06 in 10.0 mi Calm Calm - N/A   Clear
4:53 AM 64.0 °F 57.9 °F 80% 30.08 in 10.0 mi Calm Calm - N/A   Clear
5:53 AM 63.0 °F 57.0 °F 81% 30.09 in 10.0 mi East 3.5 mph - N/A   Clear
6:53 AM 63.0 °F 57.9 °F 84% 30.10 in 10.0 mi NE 3.5 mph - N/A   Clear
7:53 AM 64.9 °F 55.9 °F 73% 30.12 in 10.0 mi ENE 4.6 mph - N/A   Clear
8:53 AM 66.0 °F 54.0 °F 65% 30.13 in 10.0 mi ENE 5.8 mph - N/A   Clear
9:53 AM 69.1 °F 52.0 °F 54% 30.14 in 10.0 mi ENE 9.2 mph - N/A   Partly Cloudy
10:53 AM 70.0 °F 50.0 °F 49% 30.13 in 10.0 mi East 6.9 mph - N/A   Partly Cloudy
11:53 AM 70.0 °F 51.1 °F 51% 30.13 in 10.0 mi East 5.8 mph - N/A   Mostly Cloudy
12:53 PM 73.0 °F 52.0 °F 48% 30.12 in 10.0 mi Calm Calm - N/A   Mostly Cloudy
1:53 PM 73.9 °F 53.1 °F 48% 30.11 in 10.0 mi Calm Calm - N/A   Partly Cloudy
2:53 PM 75.0 °F 54.0 °F 48% 30.09 in 10.0 mi NE 3.5 mph - N/A   Mostly Cloudy
3:53 PM 75.0 °F 54.0 °F 48% 30.08 in 10.0 mi Calm Calm - N/A   Clear
4:53 PM 75.0 °F 55.0 °F 50% 30.07 in 10.0 mi Variable 3.5 mph - N/A   Clear
5:53 PM 73.9 °F 55.9 °F 53% 30.06 in 10.0 mi NNW 4.6 mph - N/A   Clear
6:53 PM 72.0 °F 57.0 °F 59% 30.07 in 10.0 mi Calm Calm - N/A   Clear
7:53 PM 70.0 °F 55.0 °F 59% 30.08 in 10.0 mi SE 4.6 mph - N/A   Clear
8:53 PM 66.9 °F 55.9 °F 68% 30.08 in 10.0 mi Calm Calm - N/A   Clear
9:53 PM 66.0 °F 57.9 °F 75% 30.08 in 10.0 mi Calm Calm - N/A   Clear
10:53 PM 64.9 °F 59.0 °F 81% 30.07 in 10.0 mi NNE 3.5 mph - N/A   Clear
11:53 PM 63.0 °F 59.0 °F 87% 30.06 in 10.0 mi Calm Calm - N/A   Clear